Time,TemperatureF,DewpointF,PressureIn,WindDirection,WindDirectionDegrees,WindSpeedMPH,WindSpeedGustMPH,Humidity,HourlyPrecipIn,Conditions,Clouds,dailyrainin,SoftwareType,DateUTC
2013-01-11 00:05:00,24.8,12.1,23.03,ESE,116,4.0,4.0,58,0.00,,,0.00,WeatherTracker,2013-01-11 07:05:00,
2013-01-11 00:10:00,24.6,12.0,23.03,East,92,4.0,4.0,58,0.00,,,0.00,WeatherTracker,2013-01-11 07:10:00,
2013-01-11 00:20:00,23.7,9.1,23.03,East,83,4.0,4.0,53,0.00,,,0.00,WeatherTracker,2013-01-11 07:20:00,
2013-01-11 00:25:00,23.4,7.9,23.03,East,98,4.0,5.0,51,0.00,,,0.00,WeatherTracker,2013-01-11 07:25:00,
2013-01-11 00:35:00,22.8,7.0,23.06,East,79,3.0,5.0,50,0.00,,,0.00,WeatherTracker,2013-01-11 07:35:00,
2013-01-11 00:40:00,22.6,6.8,23.06,ENE,76,0.0,0.0,50,0.00,,,0.00,WeatherTracker,2013-01-11 07:40:00,
2013-01-11 00:45:00,22.6,6.4,23.06,East,101,2.0,0.0,49,0.00,,,0.00,WeatherTracker,2013-01-11 07:45:00,
2013-01-11 00:55:00,22.5,6.2,23.06,ENE,76,0.0,0.0,49,0.00,,,0.00,WeatherTracker,2013-01-11 07:55:00,
2013-01-11 01:00:00,22.5,6.7,23.06,SE,125,4.0,4.0,50,0.00,,,0.00,WeatherTracker,2013-01-11 08:00:00,
2013-01-11 01:10:00,21.9,7.0,23.06,East,92,4.0,5.0,52,0.00,,,0.00,WeatherTracker,2013-01-11 08:10:00,
2013-01-11 01:15:00,21.9,7.9,23.06,SSE,147,3.0,0.0,54,0.00,,,0.00,WeatherTracker,2013-01-11 08:15:00,
2013-01-11 01:20:00,21.6,7.9,23.06,NE,39,2.0,0.0,55,0.00,,,0.00,WeatherTracker,2013-01-11 08:20:00,
2013-01-11 01:25:00,21.4,8.9,23.06,ESE,116,0.0,5.0,58,0.00,,,0.00,WeatherTracker,2013-01-11 08:25:00,
2013-01-11 01:35:00,20.8,10.3,23.06,NNE,15,0.0,3.0,63,0.00,,,0.00,WeatherTracker,2013-01-11 08:35:00,
2013-01-11 01:40:00,20.7,10.1,23.06,ESE,120,4.0,5.0,63,0.00,,,0.00,WeatherTracker,2013-01-11 08:40:00,
2013-01-11 01:45:00,20.3,9.0,23.06,ESE,105,0.0,0.0,61,0.00,,,0.00,WeatherTracker,2013-01-11 08:45:00,
2013-01-11 01:50:00,20.3,8.7,23.06,East,100,3.0,5.0,60,0.00,,,0.00,WeatherTracker,2013-01-11 08:50:00,
2013-01-11 02:00:00,20.1,6.6,23.06,East,92,3.0,3.0,55,0.00,,,0.00,WeatherTracker,2013-01-11 09:00:00,
2013-01-11 02:10:00,20.1,6.2,23.06,East,101,0.0,0.0,54,0.00,,,0.00,WeatherTracker,2013-01-11 09:10:00,
2013-01-11 02:20:00,20.3,6.3,23.06,ESE,106,0.0,0.0,54,0.00,,,0.00,WeatherTracker,2013-01-11 09:20:00,
2013-01-11 02:25:00,20.3,6.3,23.06,SE,126,2.0,0.0,54,0.00,,,0.00,WeatherTracker,2013-01-11 09:25:00,
2013-01-11 02:30:00,20.1,5.8,23.06,ENE,77,0.0,2.0,53,0.00,,,0.00,WeatherTracker,2013-01-11 09:30:00,
2013-01-11 02:35:00,19.9,5.6,23.06,East,96,0.0,0.0,53,0.00,,,0.00,WeatherTracker,2013-01-11 09:35:00,
2013-01-11 02:45:00,19.4,5.1,23.06,ESE,105,0.0,0.0,53,0.00,,,0.00,WeatherTracker,2013-01-11 09:45:00,
2013-01-11 02:55:00,19.6,5.3,23.06,East,100,2.0,3.0,53,0.00,,,0.00,WeatherTracker,2013-01-11 09:55:00,
2013-01-11 03:05:00,19.4,5.5,23.09,SE,145,4.0,4.0,54,0.00,,,0.00,WeatherTracker,2013-01-11 10:05:00,
2013-01-11 03:15:00,19.2,5.7,23.09,ESE,108,4.0,4.0,55,0.00,,,0.00,WeatherTracker,2013-01-11 10:15:00,
2013-01-11 03:21:00,19.2,6.1,23.09,ESE,110,0.0,3.0,56,0.00,,,0.00,WeatherTracker,2013-01-11 10:21:00,
2013-01-11 03:30:00,19.2,7.6,23.09,ESE,123,3.0,0.0,60,0.00,,,0.00,WeatherTracker,2013-01-11 10:30:00,
2013-01-11 03:35:00,19.0,7.1,23.09,NE,52,3.0,3.0,59,0.00,,,0.00,WeatherTracker,2013-01-11 10:35:00,
2013-01-11 03:40:00,18.7,7.1,23.09,ESE,113,3.0,3.0,60,0.00,,,0.00,WeatherTracker,2013-01-11 10:40:00,
2013-01-11 03:50:00,18.7,6.4,23.09,ESE,119,4.0,4.0,58,0.00,,,0.00,WeatherTracker,2013-01-11 10:50:00,
2013-01-11 03:55:00,18.5,5.8,23.09,WNW,297,0.0,3.0,57,0.00,,,0.00,WeatherTracker,2013-01-11 10:55:00,
2013-01-11 04:05:00,18.7,5.6,23.09,ESE,110,0.0,3.0,56,0.00,,,0.00,WeatherTracker,2013-01-11 11:05:00,
2013-01-11 04:10:00,18.5,5.5,23.09,NNE,28,3.0,3.0,56,0.00,,,0.00,WeatherTracker,2013-01-11 11:10:00,
2013-01-11 04:20:00,18.5,5.1,23.09,ESE,114,3.0,4.0,55,0.00,,,0.00,WeatherTracker,2013-01-11 11:20:00,
2013-01-11 04:30:00,18.5,4.7,23.09,ENE,61,2.0,0.0,54,0.00,,,0.00,WeatherTracker,2013-01-11 11:30:00,
2013-01-11 04:35:00,18.3,4.5,23.09,NE,35,4.0,4.0,54,0.00,,,0.00,WeatherTracker,2013-01-11 11:35:00,
2013-01-11 04:40:00,18.0,4.2,23.09,ESE,103,2.0,4.0,54,0.00,,,0.00,WeatherTracker,2013-01-11 11:40:00,
2013-01-11 04:50:00,17.6,3.8,23.09,East,99,3.0,3.0,54,0.00,,,0.00,WeatherTracker,2013-01-11 11:50:00,
2013-01-11 05:00:00,17.2,3.5,23.09,ESE,113,2.0,2.0,54,0.00,,,0.00,WeatherTracker,2013-01-11 12:00:00,
2013-01-11 05:05:00,17.1,3.3,23.09,East,99,3.0,3.0,54,0.00,,,0.00,WeatherTracker,2013-01-11 12:05:00,
2013-01-11 05:10:00,17.1,3.3,23.09,ESE,104,2.0,4.0,54,0.00,,,0.00,WeatherTracker,2013-01-11 12:10:00,
2013-01-11 05:15:00,16.9,3.1,23.09,ENE,70,2.0,3.0,54,0.00,,,0.00,WeatherTracker,2013-01-11 12:15:00,
2013-01-11 05:25:00,16.7,3.0,23.09,ENE,63,2.0,0.0,54,0.00,,,0.00,WeatherTracker,2013-01-11 12:25:00,
2013-01-11 05:35:00,16.9,3.5,23.09,East,100,3.0,3.0,55,0.00,,,0.00,WeatherTracker,2013-01-11 12:35:00,
2013-01-11 05:40:00,16.9,3.5,23.09,East,101,2.0,3.0,55,0.00,,,0.00,WeatherTracker,2013-01-11 12:40:00,
2013-01-11 05:50:00,16.9,3.9,23.09,East,79,0.0,3.0,56,0.00,,,0.00,WeatherTracker,2013-01-11 12:50:00,
2013-01-11 06:00:00,16.7,3.4,23.12,East,82,2.0,3.0,55,0.00,,,0.00,WeatherTracker,2013-01-11 13:00:00,
2013-01-11 06:10:00,16.5,3.2,23.12,SE,124,3.0,4.0,55,0.00,,,0.00,WeatherTracker,2013-01-11 13:10:00,
2013-01-11 06:15:00,16.3,3.0,23.12,ESE,106,4.0,4.0,55,0.00,,,0.00,WeatherTracker,2013-01-11 13:15:00,
2013-01-11 06:20:00,16.2,2.9,23.12,ESE,114,0.0,0.0,55,0.00,,,0.00,WeatherTracker,2013-01-11 13:20:00,
2013-01-11 06:25:00,16.0,3.1,23.12,NNE,32,0.0,2.0,56,0.00,,,0.00,WeatherTracker,2013-01-11 13:25:00,
2013-01-11 06:35:00,16.0,3.1,23.12,East,91,0.0,0.0,56,0.00,,,0.00,WeatherTracker,2013-01-11 13:35:00,
2013-01-11 06:40:00,15.8,2.9,23.12,East,81,2.0,0.0,56,0.00,,,0.00,WeatherTracker,2013-01-11 13:40:00,
2013-01-11 06:50:00,15.8,2.9,23.15,East,84,2.0,2.0,56,0.00,,,0.00,WeatherTracker,2013-01-11 13:50:00,
2013-01-11 06:55:00,15.6,2.7,23.15,East,97,0.0,0.0,56,0.00,,,0.00,WeatherTracker,2013-01-11 13:55:00,
2013-01-11 07:05:00,15.3,2.0,23.15,SE,133,4.0,6.0,55,0.00,,,0.00,WeatherTracker,2013-01-11 14:05:00,
2013-01-11 07:10:00,15.3,2.0,23.15,East,94,0.0,0.0,55,0.00,,,0.00,WeatherTracker,2013-01-11 14:10:00,
2013-01-11 07:20:00,15.1,1.9,23.15,South,189,3.0,3.0,55,0.00,,,0.00,WeatherTracker,2013-01-11 14:20:00,
2013-01-11 07:25:00,15.1,1.9,23.15,ESE,123,4.0,4.0,55,0.00,,,0.00,WeatherTracker,2013-01-11 14:25:00,
2013-01-11 07:30:00,14.9,1.3,23.15,ESE,108,2.0,3.0,54,0.00,,,0.00,WeatherTracker,2013-01-11 14:30:00,
2013-01-11 07:35:00,14.9,1.3,23.15,ESE,110,0.0,3.0,54,0.00,,,0.00,WeatherTracker,2013-01-11 14:35:00,
2013-01-11 07:45:00,14.5,0.6,23.18,SE,137,3.0,0.0,53,0.00,,,0.00,WeatherTracker,2013-01-11 14:45:00,
2013-01-11 07:55:00,14.7,0.3,23.18,East,101,3.0,3.0,52,0.00,,,0.00,WeatherTracker,2013-01-11 14:55:00,
2013-01-11 08:05:00,14.9,-0.3,23.18,East,99,0.0,0.0,50,0.00,,,0.00,WeatherTracker,2013-01-11 15:05:00,
2013-01-11 08:10:00,15.1,-0.2,23.18,SE,141,3.0,4.0,50,0.00,,,0.00,WeatherTracker,2013-01-11 15:10:00,
2013-01-11 08:20:00,15.4,-0.3,23.18,ENE,74,2.0,0.0,49,0.00,,,0.00,WeatherTracker,2013-01-11 15:20:00,
2013-01-11 08:25:00,15.6,-0.1,23.18,NE,46,0.0,0.0,49,0.00,,,0.00,WeatherTracker,2013-01-11 15:25:00,
2013-01-11 08:35:00,16.0,-0.2,23.18,NE,48,0.0,0.0,48,0.00,,,0.00,WeatherTracker,2013-01-11 15:35:00,
2013-01-11 08:45:00,16.3,0.1,23.18,SE,125,0.0,3.0,48,0.00,,,0.00,WeatherTracker,2013-01-11 15:45:00,
2013-01-11 08:55:00,16.7,0.0,23.18,ESE,122,4.0,4.0,47,0.00,,,0.00,WeatherTracker,2013-01-11 15:55:00,
2013-01-11 09:05:00,16.9,-0.3,23.18,ENE,76,4.0,4.0,46,0.00,,,0.00,WeatherTracker,2013-01-11 16:05:00,
2013-01-11 09:10:00,17.1,-0.1,23.18,SE,142,2.0,3.0,46,0.00,,,0.00,WeatherTracker,2013-01-11 16:10:00,
2013-01-11 09:20:00,17.6,-0.1,23.18,ESE,106,2.0,3.0,45,0.00,,,0.00,WeatherTracker,2013-01-11 16:20:00,
2013-01-11 09:30:00,18.1,-0.1,23.18,ESE,122,3.0,3.0,44,0.00,,,0.00,WeatherTracker,2013-01-11 16:30:00,
2013-01-11 09:35:00,18.5,0.3,23.18,East,86,3.0,3.0,44,0.00,,,0.00,WeatherTracker,2013-01-11 16:35:00,
2013-01-11 09:40:00,18.7,-0.1,23.18,SSE,166,4.0,6.0,43,0.00,,,0.00,WeatherTracker,2013-01-11 16:40:00,
2013-01-11 09:45:00,19.0,0.3,23.18,ESE,112,2.0,2.0,43,0.00,,,0.00,WeatherTracker,2013-01-11 16:45:00,
2013-01-11 09:50:00,19.0,0.3,23.18,ESE,115,3.0,3.0,43,0.00,,,0.00,WeatherTracker,2013-01-11 16:50:00,
2013-01-11 09:55:00,19.2,0.4,23.18,SSW,206,4.0,0.0,43,0.00,,,0.00,WeatherTracker,2013-01-11 16:55:00,
2013-01-11 10:00:00,19.4,0.6,23.21,East,92,3.0,3.0,43,0.00,,,0.00,WeatherTracker,2013-01-11 17:00:00,
2013-01-11 10:10:00,19.9,-0.4,23.21,ENE,59,3.0,3.0,40,0.00,,,0.00,WeatherTracker,2013-01-11 17:10:00,
2013-01-11 10:20:00,20.3,-1.2,23.21,SSE,152,2.0,3.0,38,0.00,,,0.00,WeatherTracker,2013-01-11 17:20:00,
2013-01-11 10:25:00,20.5,-2.2,23.21,NE,49,3.0,3.0,36,0.00,,,0.00,WeatherTracker,2013-01-11 17:25:00,
2013-01-11 10:30:00,20.7,-2.6,23.21,East,97,4.0,4.0,35,0.00,,,0.00,WeatherTracker,2013-01-11 17:30:00,
2013-01-11 10:40:00,21.2,-2.7,23.21,East,82,0.0,4.0,34,0.00,,,0.00,WeatherTracker,2013-01-11 17:40:00,
2013-01-11 10:50:00,21.7,-2.9,23.21,SSE,149,0.0,3.0,33,0.00,,,0.00,WeatherTracker,2013-01-11 17:50:00,
2013-01-11 11:00:00,21.9,-2.7,23.21,ESE,123,3.0,5.0,33,0.00,,,0.00,WeatherTracker,2013-01-11 18:00:00,
2013-01-11 11:10:00,21.9,-3.4,23.21,SE,124,0.0,0.0,32,0.00,,,0.00,WeatherTracker,2013-01-11 18:10:00,
2013-01-11 11:15:00,22.5,-2.9,23.18,North,5,2.0,6.0,32,0.00,,,0.00,WeatherTracker,2013-01-11 18:15:00,
2013-01-11 11:25:00,22.8,-3.9,23.18,ESE,123,0.0,4.0,30,0.00,,,0.00,WeatherTracker,2013-01-11 18:25:00,
2013-01-11 11:30:00,23.0,-3.8,23.18,SE,136,4.0,5.0,30,0.00,,,0.00,WeatherTracker,2013-01-11 18:30:00,
2013-01-11 11:40:00,22.8,-6.1,23.18,NNE,12,4.0,4.0,27,0.00,,,0.00,WeatherTracker,2013-01-11 18:40:00,
2013-01-11 11:45:00,23.0,-5.9,23.18,East,95,0.0,3.0,27,0.00,,,0.00,WeatherTracker,2013-01-11 18:45:00,
2013-01-11 11:50:00,23.5,-4.0,23.18,East,95,0.0,0.0,29,0.00,,,0.00,WeatherTracker,2013-01-11 18:50:00,
2013-01-11 12:00:00,24.1,-5.0,23.18,SSE,165,2.0,3.0,27,0.00,,,0.00,WeatherTracker,2013-01-11 19:00:00,
2013-01-11 12:10:00,24.1,-5.0,23.18,NNE,31,4.0,0.0,27,0.00,,,0.00,WeatherTracker,2013-01-11 19:10:00,
2013-01-11 12:15:00,24.3,-4.8,23.18,NE,45,0.0,2.0,27,0.00,,,0.00,WeatherTracker,2013-01-11 19:15:00,
2013-01-11 12:20:00,24.1,-7.4,23.18,North,353,4.0,4.0,24,0.00,,,0.00,WeatherTracker,2013-01-11 19:20:00,
2013-01-11 12:25:00,24.3,-4.8,23.18,SE,127,2.0,5.0,27,0.00,,,0.00,WeatherTracker,2013-01-11 19:25:00,
2013-01-11 12:35:00,24.8,-6.8,23.18,ESE,122,3.0,5.0,24,0.00,,,0.00,WeatherTracker,2013-01-11 19:35:00,
2013-01-11 12:45:00,24.8,-6.8,23.18,SE,124,5.0,5.0,24,0.00,,,0.00,WeatherTracker,2013-01-11 19:45:00,
2013-01-11 12:50:00,24.6,-7.0,23.18,ESE,115,3.0,4.0,24,0.00,,,0.00,WeatherTracker,2013-01-11 19:50:00,
2013-01-11 13:00:00,24.8,-6.8,23.15,East,93,2.0,4.0,24,0.00,,,0.00,WeatherTracker,2013-01-11 20:00:00,
2013-01-11 13:05:00,25.2,-6.5,23.15,East,86,3.0,3.0,24,0.00,,,0.00,WeatherTracker,2013-01-11 20:05:00,
2013-01-11 13:15:00,25.3,-9.1,23.15,East,88,3.0,4.0,21,0.00,,,0.00,WeatherTracker,2013-01-11 20:15:00,
2013-01-11 13:20:00,25.3,-9.1,23.15,NNE,31,4.0,4.0,21,0.00,,,0.00,WeatherTracker,2013-01-11 20:20:00,
2013-01-11 13:25:00,25.5,-8.9,23.15,East,83,3.0,4.0,21,0.00,,,0.00,WeatherTracker,2013-01-11 20:25:00,
2013-01-11 13:30:00,25.3,-9.1,23.15,ENE,70,4.0,4.0,21,0.00,,,0.00,WeatherTracker,2013-01-11 20:30:00,
2013-01-11 13:35:00,25.3,-9.1,23.15,East,91,2.0,4.0,21,0.00,,,0.00,WeatherTracker,2013-01-11 20:35:00,
2013-01-11 13:45:00,24.8,-11.5,23.18,ENE,71,2.0,4.0,19,0.00,,,0.00,WeatherTracker,2013-01-11 20:45:00,
2013-01-11 13:50:00,24.4,-11.8,23.18,ESE,109,3.0,3.0,19,0.00,,,0.00,WeatherTracker,2013-01-11 20:50:00,
2013-01-11 14:00:00,24.4,-8.9,23.18,NW,317,3.0,3.0,22,0.00,,,0.00,WeatherTracker,2013-01-11 21:00:00,
2013-01-11 14:10:00,24.4,-8.9,23.18,SE,132,3.0,4.0,22,0.00,,,0.00,WeatherTracker,2013-01-11 21:10:00,
2013-01-11 14:15:00,24.6,-8.7,23.15,West,274,4.0,6.0,22,0.00,,,0.00,WeatherTracker,2013-01-11 21:15:00,
2013-01-11 14:25:00,24.3,-12.0,23.15,East,83,3.0,3.0,19,0.00,,,0.00,WeatherTracker,2013-01-11 21:25:00,
2013-01-11 14:35:00,24.1,-9.2,23.18,NNW,327,4.0,6.0,22,0.00,,,0.00,WeatherTracker,2013-01-11 21:35:00,
2013-01-11 14:40:00,24.1,-12.1,23.18,ESE,112,0.0,0.0,19,0.00,,,0.00,WeatherTracker,2013-01-11 21:40:00,
2013-01-11 14:45:00,24.1,-12.1,23.18,SW,229,0.0,3.0,19,0.00,,,0.00,WeatherTracker,2013-01-11 21:45:00,
2013-01-11 14:50:00,23.9,-12.3,23.18,NNE,28,3.0,3.0,19,0.00,,,0.00,WeatherTracker,2013-01-11 21:50:00,
2013-01-11 15:00:00,23.7,-12.4,23.18,ESE,103,3.0,3.0,19,0.00,,,0.00,WeatherTracker,2013-01-11 22:00:00,
2013-01-11 15:05:00,23.9,-12.3,23.18,ESE,104,3.0,4.0,19,0.00,,,0.00,WeatherTracker,2013-01-11 22:05:00,
2013-01-11 15:10:00,23.7,-12.4,23.18,NNE,30,2.0,3.0,19,0.00,,,0.00,WeatherTracker,2013-01-11 22:10:00,
2013-01-11 15:20:00,23.7,-9.5,23.18,NE,45,3.0,3.0,22,0.00,,,0.00,WeatherTracker,2013-01-11 22:20:00,
2013-01-11 15:25:00,23.7,-9.5,23.18,ESE,119,0.0,0.0,22,0.00,,,0.00,WeatherTracker,2013-01-11 22:25:00,
2013-01-11 15:30:00,23.7,-12.4,23.18,ENE,77,2.0,0.0,19,0.00,,,0.00,WeatherTracker,2013-01-11 22:30:00,
2013-01-11 15:35:00,23.5,-9.7,23.18,NNE,28,3.0,3.0,22,0.00,,,0.00,WeatherTracker,2013-01-11 22:35:00,
2013-01-11 15:45:00,23.4,-9.8,23.18,SE,126,3.0,3.0,22,0.00,,,0.00,WeatherTracker,2013-01-11 22:45:00,
2013-01-11 15:50:00,23.4,-9.8,23.18,ESE,109,3.0,3.0,22,0.00,,,0.00,WeatherTracker,2013-01-11 22:50:00,
2013-01-11 15:55:00,23.2,-12.9,23.18,NE,40,0.0,3.0,19,0.00,,,0.00,WeatherTracker,2013-01-11 22:55:00,
2013-01-11 16:05:00,23.0,-12.0,23.18,NNE,23,2.0,0.0,20,0.00,,,0.00,WeatherTracker,2013-01-11 23:05:00,
2013-01-11 16:15:00,22.8,-12.2,23.18,East,82,0.0,0.0,20,0.00,,,0.00,WeatherTracker,2013-01-11 23:15:00,
2013-01-11 16:20:00,22.6,-12.3,23.18,NNE,28,2.0,0.0,20,0.00,,,0.00,WeatherTracker,2013-01-11 23:20:00,
2013-01-11 16:25:00,22.5,-12.5,23.18,ESE,119,0.0,3.0,20,0.00,,,0.00,WeatherTracker,2013-01-11 23:25:00,
2013-01-11 16:35:00,21.9,-11.0,23.18,SE,124,0.0,0.0,22,0.00,,,0.00,WeatherTracker,2013-01-11 23:35:00,
2013-01-11 16:40:00,21.9,-12.9,23.18,East,88,0.0,0.0,20,0.00,,,0.00,WeatherTracker,2013-01-11 23:40:00,
2013-01-11 16:50:00,21.7,-13.1,23.18,ESE,106,0.0,0.0,20,0.00,,,0.00,WeatherTracker,2013-01-11 23:50:00,
2013-01-11 16:55:00,21.6,-13.2,23.18,NNE,14,0.0,0.0,20,0.00,,,0.00,WeatherTracker,2013-01-11 23:55:00,
2013-01-11 17:00:00,21.4,-13.4,23.18,NNE,25,0.0,0.0,20,0.00,,,0.00,WeatherTracker,2013-01-12 00:00:00,
2013-01-11 17:10:00,21.0,-13.7,23.18,NE,38,0.0,2.0,20,0.00,,,0.00,WeatherTracker,2013-01-12 00:10:00,
2013-01-11 17:20:00,20.5,-14.1,23.18,NE,41,0.0,0.0,20,0.00,,,0.00,WeatherTracker,2013-01-12 00:20:00,
2013-01-11 17:30:00,20.3,-12.4,23.18,NE,39,0.0,0.0,22,0.00,,,0.00,WeatherTracker,2013-01-12 00:30:00,
2013-01-11 17:40:00,19.8,-12.9,23.18,ESE,103,0.0,0.0,22,0.00,,,0.00,WeatherTracker,2013-01-12 00:40:00,
2013-01-11 17:45:00,19.6,-13.0,23.18,ESE,119,0.0,0.0,22,0.00,,,0.00,WeatherTracker,2013-01-12 00:45:00,
2013-01-11 17:55:00,19.0,-12.6,23.18,East,95,0.0,0.0,23,0.00,,,0.00,WeatherTracker,2013-01-12 00:55:00,
2013-01-11 18:00:00,18.9,-11.1,23.18,East,94,0.0,0.0,25,0.00,,,0.00,WeatherTracker,2013-01-12 01:00:00,
2013-01-11 18:05:00,18.5,-13.1,23.18,East,94,0.0,0.0,23,0.00,,,0.00,WeatherTracker,2013-01-12 01:05:00,
2013-01-11 18:15:00,17.8,-12.0,23.18,East,94,0.0,0.0,25,0.00,,,0.00,WeatherTracker,2013-01-12 01:15:00,
2013-01-11 18:25:00,17.2,-14.1,23.18,East,94,0.0,0.0,23,0.00,,,0.00,WeatherTracker,2013-01-12 01:25:00,
2013-01-11 18:30:00,16.9,-12.0,23.18,East,94,0.0,0.0,26,0.00,,,0.00,WeatherTracker,2013-01-12 01:30:00,
2013-01-11 18:40:00,16.5,-12.3,23.18,East,94,0.0,0.0,26,0.00,,,0.00,WeatherTracker,2013-01-12 01:40:00,
2013-01-11 18:50:00,16.0,-12.8,23.21,East,94,0.0,0.0,26,0.00,,,0.00,WeatherTracker,2013-01-12 01:50:00,
2013-01-11 18:55:00,15.8,-12.9,23.21,East,94,0.0,0.0,26,0.00,,,0.00,WeatherTracker,2013-01-12 01:55:00,
2013-01-11 19:05:00,15.4,-13.2,23.21,East,94,0.0,0.0,26,0.00,,,0.00,WeatherTracker,2013-01-12 02:05:00,
2013-01-11 19:15:00,15.1,-13.6,23.21,East,94,0.0,0.0,26,0.00,,,0.00,WeatherTracker,2013-01-12 02:15:00,
2013-01-11 19:20:00,14.9,-13.7,23.21,East,94,0.0,0.0,26,0.00,,,0.00,WeatherTracker,2013-01-12 02:20:00,
2013-01-11 19:25:00,14.4,-12.0,23.21,East,94,0.0,0.0,29,0.00,,,0.00,WeatherTracker,2013-01-12 02:25:00,
2013-01-11 19:30:00,14.4,-12.0,23.21,East,93,0.0,0.0,29,0.00,,,0.00,WeatherTracker,2013-01-12 02:30:00,
2013-01-11 19:40:00,14.2,-10.8,23.21,East,90,0.0,0.0,31,0.00,,,0.00,WeatherTracker,2013-01-12 02:40:00,
2013-01-11 19:50:00,13.8,-10.5,23.21,NE,40,0.0,0.0,32,0.00,,,0.00,WeatherTracker,2013-01-12 02:50:00,
2013-01-11 20:00:00,13.6,-10.7,23.21,NNE,31,0.0,0.0,32,0.00,,,0.00,WeatherTracker,2013-01-12 03:00:00,
2013-01-11 20:06:00,13.5,-10.8,23.21,NNE,31,0.0,0.0,32,0.00,,,0.00,WeatherTracker,2013-01-12 03:06:00,
2013-01-11 20:15:00,13.5,-10.8,23.21,NNE,31,0.0,0.0,32,0.00,,,0.00,WeatherTracker,2013-01-12 03:15:00,
2013-01-11 20:25:00,13.3,-11.0,23.21,NNE,31,0.0,0.0,32,0.00,,,0.00,WeatherTracker,2013-01-12 03:25:00,
2013-01-11 20:30:00,13.3,-11.0,23.21,NNE,16,0.0,0.0,32,0.00,,,0.00,WeatherTracker,2013-01-12 03:30:00,
2013-01-11 20:35:00,13.3,-11.0,23.21,NNE,16,0.0,0.0,32,0.00,,,0.00,WeatherTracker,2013-01-12 03:35:00,
2013-01-11 20:40:00,13.5,-10.8,23.21,NNE,16,0.0,0.0,32,0.00,,,0.00,WeatherTracker,2013-01-12 03:40:00,
2013-01-11 20:50:00,12.7,-11.5,23.21,NNE,16,0.0,0.0,32,0.00,,,0.00,WeatherTracker,2013-01-12 03:50:00,
2013-01-11 21:00:00,12.6,-11.6,23.21,NNE,16,0.0,0.0,32,0.00,,,0.00,WeatherTracker,2013-01-12 04:00:00,
2013-01-11 21:10:00,12.2,-12.0,23.21,NNE,16,0.0,0.0,32,0.00,,,0.00,WeatherTracker,2013-01-12 04:10:00,
2013-01-11 21:15:00,11.8,-12.3,23.21,NNE,16,0.0,0.0,32,0.00,,,0.00,WeatherTracker,2013-01-12 04:15:00,
2013-01-11 21:20:00,11.8,-12.3,23.21,NNE,16,0.0,0.0,32,0.00,,,0.00,WeatherTracker,2013-01-12 04:20:00,
2013-01-11 21:30:00,11.3,-12.8,23.21,NNE,16,0.0,0.0,32,0.00,,,0.00,WeatherTracker,2013-01-12 04:30:00,
2013-01-11 21:35:00,11.1,-12.9,23.21,NNE,16,0.0,0.0,32,0.00,,,0.00,WeatherTracker,2013-01-12 04:35:00,
2013-01-11 21:45:00,10.9,-13.1,23.18,NNE,16,0.0,0.0,32,0.00,,,0.00,WeatherTracker,2013-01-12 04:45:00,
2013-01-11 21:50:00,10.8,-13.2,23.18,NNE,16,0.0,0.0,32,0.00,,,0.00,WeatherTracker,2013-01-12 04:50:00,
2013-01-11 21:55:00,10.6,-13.4,23.18,NNE,16,0.0,0.0,32,0.00,,,0.00,WeatherTracker,2013-01-12 04:55:00,
2013-01-11 22:00:00,10.6,-13.4,23.21,NNE,16,0.0,0.0,32,0.00,,,0.00,WeatherTracker,2013-01-12 05:00:00,
2013-01-11 22:05:00,10.4,-13.6,23.21,NNE,16,0.0,0.0,32,0.00,,,0.00,WeatherTracker,2013-01-12 05:05:00,
2013-01-11 22:10:00,10.4,-13.6,23.21,NNE,16,0.0,0.0,32,0.00,,,0.00,WeatherTracker,2013-01-12 05:10:00,
2013-01-11 22:20:00,10.8,-13.2,23.21,NNE,16,0.0,0.0,32,0.00,,,0.00,WeatherTracker,2013-01-12 05:20:00,
2013-01-11 22:25:00,10.8,-13.2,23.21,NNE,15,0.0,0.0,32,0.00,,,0.00,WeatherTracker,2013-01-12 05:25:00,
2013-01-11 22:30:00,10.8,-13.2,23.18,NNE,15,0.0,0.0,32,0.00,,,0.00,WeatherTracker,2013-01-12 05:30:00,
2013-01-11 22:40:00,11.1,-12.9,23.18,NNE,15,0.0,0.0,32,0.00,,,0.00,WeatherTracker,2013-01-12 05:40:00,
2013-01-11 22:45:00,11.1,-12.9,23.21,NNE,15,0.0,0.0,32,0.00,,,0.00,WeatherTracker,2013-01-12 05:45:00,
2013-01-11 22:55:00,10.8,-13.2,23.21,NNE,15,0.0,0.0,32,0.00,,,0.00,WeatherTracker,2013-01-12 05:55:00,
2013-01-11 23:00:00,10.6,-13.4,23.21,NNE,15,0.0,0.0,32,0.00,,,0.00,WeatherTracker,2013-01-12 06:00:00,
2013-01-11 23:05:00,10.2,-13.7,23.21,NNE,15,0.0,0.0,32,0.00,,,0.00,WeatherTracker,2013-01-12 06:05:00,
2013-01-11 23:10:00,10.2,-13.7,23.21,NNE,15,0.0,0.0,32,0.00,,,0.00,WeatherTracker,2013-01-12 06:10:00,
2013-01-11 23:15:00,10.0,-13.9,23.21,NNE,15,0.0,0.0,32,0.00,,,0.00,WeatherTracker,2013-01-12 06:15:00,
2013-01-11 23:20:00,9.7,-14.2,23.21,NNE,15,0.0,0.0,32,0.00,,,0.00,WeatherTracker,2013-01-12 06:20:00,
2013-01-11 23:25:00,9.5,-14.3,23.21,NNE,15,0.0,0.0,32,0.00,,,0.00,WeatherTracker,2013-01-12 06:25:00,
2013-01-11 23:30:00,9.5,-14.3,23.18,NNE,15,0.0,0.0,32,0.00,,,0.00,WeatherTracker,2013-01-12 06:30:00,
2013-01-11 23:40:00,9.1,-14.7,23.18,NNE,15,0.0,0.0,32,0.00,,,0.00,WeatherTracker,2013-01-12 06:40:00,
2013-01-11 23:45:00,8.8,-15.0,23.18,NNE,15,0.0,0.0,32,0.00,,,0.00,WeatherTracker,2013-01-12 06:45:00,
2013-01-11 23:50:00,8.6,-15.1,23.18,NNE,15,0.0,0.0,32,0.00,,,0.00,WeatherTracker,2013-01-12 06:50:00,